Location: Ladrillo (historical)
(32.8195°N, 117.2231°W)
Time: 01:08:23
(UTC+00:00)

Courier 1B - Pass Details

Date: 08 March 2021
Orbit: 963 x 1209 km, 28.3° (Epoch: 15 April)

Event Time Altitude Azimuth Distance (km) Brightness Sun altitude
Rises 17:03:54 0° 270° (W) 3,645 10.1 34.0°
Reaches altitude 10° 17:06:38 10° 264° (W) 2,689 9.5 34.5°
Maximum altitude 17:12:49 49° 192° (SSW) 1,222 8.8 35.6°
Drops below altitude 10° 17:19:05 10° 119° (ESE) 2,724 11.2 36.7°
Sets 17:21:51 0° 114° (ESE) 3,696 11.4 37.1°
